Concordia, KS

2:01 PM CDT on August 27, 2016 (GMT -0500)
Blosser Municipal

Weather History for KCNK - February, 2013

Change the Weather History Date:

Wednesday, February 6, 2013

  Actual Average Record
Temperature  
Mean Temperature 48 °F 30 °F  
Max Temperature 60 °F 41 °F 72 °F (2009)
Min Temperature 35 °F 20 °F -10 °F (1905)
Degree Days  
Heating Degree Days 17 35  
Month to date heating degree days 175 210  
Since 1 July heating degree days 3283 3514  
Cooling Degree Days 0 0  
Month to date cooling degree days 0 0  
Year to date cooling degree days 0 0  
Moisture  
Dew Point 38 °F    
Average Humidity 75    
Maximum Humidity 93    
Minimum Humidity 57    
Precipitation  
Precipitation 0.00 in 0.02 in 1.21 in (1928)
Month to date precipitation 0.00 0.15  
Year to date precipitation 0.69 0.73  
Snow  
Snow 0.00 in 0.20 in 2.90 in (1997)
Month to date snowfall 0.0 1.3  
Year to date snowfall 5.2 7.0  
Since 1 July snowfall 13.7 13.5  
Snow Depth 0.00 in    
Sea Level Pressure  
Sea Level Pressure 29.91 in    
Wind  
Wind Speed 14 mph (South)    
Max Wind Speed 25 mph    
Max Gust Speed 32 mph    
Visibility 8 miles    
Events      
T = Trace of Precipitation, MM = Missing Value Source: NWS Daily Summary

Daily Weather History Graph

Daily Weather History Graph

Search for Another Location

Airport or City:

Trip Planner

Search our weather history database for the weather conditions in past years. The results will help you decide how hot, cold, wet, or windy it might be!

Date:

Astronomy

Feb. 06, 2013 Rise Set
Actual Time 7:32 AM CST 5:57 PM CST
Civil Twilight 7:04 AM CST 6:25 PM CST
Nautical Twilight 6:32 AM CST 6:57 PM CST
Astronomical Twilight 6:01 AM CST 7:28 PM CST
Moon 4:17 AM CST (2/6) 2:17 PM CST (2/6)
Length of Visible Light 11h 20m
Length of Day
10h 24m
Waning Crescent, 17% of the Moon is Illuminated
Feb 6
Waning Crescent
Feb 10
New
Feb 17
First Quarter
Feb 25
Full
Mar 4
Last Quarter

Hourly Weather History & Observations

Time (CST) Temp. Windchill Dew Point Humidity Pressure Visibility Wind Dir Wind Speed Gust Speed Precip Events Conditions
12:55 AM 39.0 °F 31.8 °F 28.0 °F 65% 30.03 in 10.0 mi SE 11.5 mph - N/A   Mostly Cloudy
1:55 AM 39.0 °F 31.4 °F 27.0 °F 62% 30.02 in 10.0 mi SE 12.7 mph - N/A   Mostly Cloudy
2:55 AM 37.9 °F 30.5 °F 26.1 °F 62% 30.01 in 10.0 mi SSE 11.5 mph - N/A   Clear
3:55 AM 37.9 °F 30.0 °F 26.1 °F 62% 30.00 in 10.0 mi SSE 12.7 mph - N/A   Clear
4:55 AM 37.0 °F 28.9 °F 26.1 °F 65% 30.00 in 10.0 mi SSE 12.7 mph - N/A   Clear
5:55 AM 36.0 °F 26.7 °F 26.1 °F 67% 30.00 in 10.0 mi SSE 15.0 mph - N/A   Clear
6:55 AM 37.0 °F 28.1 °F 26.1 °F 65% 29.99 in 10.0 mi SSE 15.0 mph - N/A   Clear
7:55 AM 37.0 °F 28.1 °F 27.0 °F 67% 29.99 in 10.0 mi SSE 15.0 mph 23.0 mph N/A   Clear
8:55 AM 41.0 °F 32.2 °F 28.9 °F 62% 29.98 in 10.0 mi SSE 18.4 mph - N/A   Clear
9:55 AM 46.9 °F - 32.0 °F 56% 29.97 in 10.0 mi South 17.3 mph 24.2 mph N/A   Scattered Clouds
10:08 AM 46.4 °F 39.5 °F 33.8 °F 62% 29.96 in 10.0 mi South 17.3 mph 24.2 mph N/A   Mostly Cloudy
10:38 AM 46.4 °F 41.1 °F 35.6 °F 66% 29.94 in 8.0 mi South 11.5 mph - N/A   Overcast
10:55 AM 51.1 °F - 39.0 °F 63% 29.95 in 7.0 mi South 15.0 mph 23.0 mph N/A   Overcast
11:55 AM 51.1 °F - 43.0 °F 74% 29.94 in 6.0 mi South 20.7 mph 29.9 mph N/A   Haze
12:55 PM 53.1 °F - 42.1 °F 66% 29.88 in 6.0 mi South 17.3 mph 24.2 mph N/A   Haze
1:55 PM 55.0 °F - 44.1 °F 67% 29.85 in 6.0 mi South 16.1 mph 24.2 mph N/A   Haze
2:45 PM 55.4 °F - 44.6 °F 67% 29.82 in 7.0 mi SSW 18.4 mph 25.3 mph N/A   Overcast
2:55 PM 55.9 °F - 45.0 °F 67% 29.83 in 6.0 mi South 16.1 mph 21.9 mph N/A   Haze
3:55 PM 59.0 °F - 45.0 °F 60% 29.80 in 7.0 mi South 17.3 mph 20.7 mph N/A   Scattered Clouds
4:55 PM 59.0 °F - 46.0 °F 62% 29.79 in 8.0 mi South 11.5 mph - N/A   Scattered Clouds
5:55 PM 53.1 °F - 46.0 °F 77% 29.81 in 7.0 mi SSE 6.9 mph - N/A   Scattered Clouds
6:55 PM 54.0 °F - 46.9 °F 77% 29.83 in 7.0 mi South 15.0 mph - N/A   Overcast
7:55 PM 54.0 °F - 46.9 °F 77% 29.84 in 7.0 mi South 10.4 mph - N/A   Overcast
8:55 PM 52.0 °F - 46.0 °F 80% 29.84 in 6.0 mi South 10.4 mph - N/A   Haze
9:55 PM 48.9 °F - 45.0 °F 86% 29.85 in 5.0 mi South 9.2 mph - N/A   Clear
10:55 PM 48.9 °F - 46.0 °F 90% 29.85 in 4.0 mi South 11.5 mph - N/A   Clear
11:55 PM 48.9 °F - 46.9 °F 93% 29.86 in 3.0 mi SSW 8.1 mph - N/A   Mostly Cloudy